Regional Weather Roundup
Issued by NWS

Home | Current Version | Previous Version | Graphics & Text | Print | Product List | Glossary On
Versions: 1 2 3 4 5 6 7 8 9 10 11 12 13 14 15 16 17 18 19 20 21 22 23 24 25 26 27 28 29 30 31 32 33 34 35 36 37 38 39 40 41 42 43 44 45 46 47 48 49 50
000
ASUS45 KPSR 231810
RWRAZ

ARIZONA HOURLY REGIONAL WEATHER ROUNDUP
NATIONAL WEATHER SERVICE PHOENIX AZ
1100 AM MST TUE AUG 23 2016

NOTE: FAIR INDICATES FEW OR NO CLOUDS BELOW 12,000 FEET WITH NO
SIGNIFICANT WEATHER AND/OR OBSTRUCTIONS TO VISIBILITY.

AZZ001>003-036-231900-
NORTHWEST ARIZONA

CITY           SKY/WX    TMP DP  RH WIND       PRES   REMARKS
BULLHEAD CITY  SUNNY     86  55  35 S3        30.01S
KINGMAN        SUNNY     74  57  55 CALM      30.16S
6HR MIN TEMP:  62; 6HR MAX TEMP:  74; 6HR PCP:  0.01;

$$

AZZ004>008-015-016-018-231900-
NORTH CENTRAL ARIZONA

CITY           SKY/WX    TMP DP  RH WIND       PRES   REMARKS
GRAND CANYON   MOSUNNY   64  48  56 SW9       30.32R
6HR MIN TEMP:  50; 6HR MAX TEMP:  66;

PRESCOTT       CLOUDY    58  57  97 SE5       30.27F
6HR MIN TEMP:  57; 6HR MAX TEMP:  61; 6HR PCP:  0.08;

FLAGSTAFF      CLOUDY    60  47  61 S13       30.35S
6HR MIN TEMP:  51; 6HR MAX TEMP:  61;

PAYSON         CLOUDY    66  52  59 CALM      30.30S
PAGE           PTSUNNY   72  52  49 CALM      30.17F
6HR MIN TEMP:  65; 6HR MAX TEMP:  73; 6HR PCP:  0.03;

$$

AZZ009>014-017-231900-
NORTHEAST ARIZONA

CITY           SKY/WX    TMP DP  RH WIND       PRES   REMARKS
WINSLOW        CLOUDY    72  48  42 S3        30.24S
6HR MIN TEMP:  59; 6HR MAX TEMP:  73; 6HR PCP:  0.01;

SAINT JOHNS    PTSUNNY   68  54  60 CALM      30.28F
6HR MIN TEMP:  55; 6HR MAX TEMP:  68; 6HR PCP:  0.15;

WINDOW ROCK    LGT RAIN  56  52  86 S9        30.36R
6HR MIN TEMP:  48; 6HR MAX TEMP:  65;

SHOW LOW       PTSUNNY   66  48  52 S10       30.33S
$$

AZZ023-231900-
GREATER PHOENIX AREA

CITY           SKY/WX    TMP DP  RH WIND       PRES   REMARKS
PHOENIX        MOSUNNY   86  61  42 NE9       30.00F
6HR MIN TEMP:  74; 6HR MAX TEMP:  86; 6HR PCP:  0.09;

BUCKEYE        MOSUNNY   86  59  39 E5        30.03S
GLENDALE       PTSUNNY   84  63  48 NW7       30.04S
LUKE AFB       MOSUNNY   84  60  44 NE8       30.02S
6HR MIN TEMP:  73; 6HR MAX TEMP:  84;

DEER VALLEY    CLOUDY    78  62  57 W3        30.04R
6HR MIN TEMP:  72; 6HR MAX TEMP:  78; 6HR PCP:  0.13;

SCOTTSDALE     PTSUNNY   80  62  54 W8        30.05F
6HR MIN TEMP:  71; 6HR MAX TEMP:  80; 6HR PCP:  0.25;

MESA-FALCON    PTSUNNY  N/A N/A N/A N9        30.00F
MESA-GATEWAY   MOSUNNY   88  61  40 NW14      30.03S
CHANDLER       MOSUNNY   88  59  37 VRB6      30.02S
$$

AZZ027-028-231900-
SOUTHWEST MARICOPA COUNTY AND PINAL COUNTY

CITY           SKY/WX    TMP DP  RH WIND       PRES   REMARKS
CASA GRANDE    SUNNY     93  55  27 S8G16     30.04S
6HR MIN TEMP:  73; 6HR MAX TEMP:  93;

GILA BEND      SUNNY     95  49  21 S7        29.97F
6HR MIN TEMP:  78; 6HR MAX TEMP:  96;

$$

AZZ503-504-507>509-231900-
SOUTHEAST ARIZONA

CITY           SKY/WX    TMP DP  RH WIND       PRES   REMARKS
TUCSON         SUNNY     87  49  26 CALM      30.12F
6HR MIN TEMP:  71; 6HR MAX TEMP:  89;

DAVIS-MONTHAN  MOSUNNY   86  50  28 E5        30.11S
6HR MIN TEMP:  70; 6HR MAX TEMP:  87;

RYAN FIELD     SUNNY     86  54  32 CALM      30.11F
NOGALES        SUNNY     84  52  33 VRB3      30.19F
6HR MIN TEMP:  59; 6HR MAX TEMP:  84;

SIERRA VISTA   MOSUNNY   82  44  26 W14G21    30.23F
6HR MIN TEMP:  63; 6HR MAX TEMP:  82;

DOUGLAS        SUNNY     84  49  29 N8        30.19F
6HR MIN TEMP:  58; 6HR MAX TEMP:  85;

SAFFORD        SUNNY     88  51  28 NW12G20   30.11F
6HR MIN TEMP:  66; 6HR MAX TEMP:  88;

$$

AZZ020-021-025-026-031-231900-
SOUTHWEST ARIZONA

CITY           SKY/WX    TMP DP  RH WIND       PRES   REMARKS
YUMA           SUNNY     94  63  35 S6        29.93S
6HR MIN TEMP:  81; 6HR MAX TEMP:  95;

$$

CAZ031-033-041-043-047-048-061-231900-
SOUTHERN CALIFORNIA

CITY           SKY/WX    TMP DP  RH WIND       PRES   REMARKS
DOWNTOWN L.A.  SUNNY     80  61  52 CALM      30.03S
6HR MIN TEMP:  64; 6HR MAX TEMP:  81;

L.A. AIRPORT   SUNNY     73  62  68 VRB7      30.05R
6HR MIN TEMP:  64; 6HR MAX TEMP:  74;

SAN DIEGO      PTSUNNY   67  62  84 VRB5      30.07S
6HR MIN TEMP:  62; 6HR MAX TEMP:  67;

BURBANK        SUNNY     79  55  43 VRB5      30.04S
6HR MIN TEMP:  64; 6HR MAX TEMP:  79;

ONTARIO        MOSUNNY   81  53  37 VRB5      30.05R
6HR MIN TEMP:  64; 6HR MAX TEMP:  81;

RIVERSIDE      SUNNY     82  53  36 VRB5      30.04S
6HR MIN TEMP:  65; 6HR MAX TEMP:  82;

PALM SPRINGS   SUNNY     97  43  15 VRB5      29.96R
6HR MIN TEMP:  77; 6HR MAX TEMP:  97;

EL CENTRO NAS  SUNNY     95  52  23 E6        29.94R
6HR MIN TEMP:  75; 6HR MAX TEMP:  96;

IMPERIAL       SUNNY     96  60  30 VRB6      29.92R
6HR MIN TEMP:  77; 6HR MAX TEMP:  97;

BLYTHE         SUNNY     93  59  31 MISG      29.96S
6HR MIN TEMP:  81; 6HR MAX TEMP:  94;

NEEDLES        SUNNY     87  62  43 CALM      30.02S
6HR MIN TEMP:  76; 6HR MAX TEMP:  87;

$$

NVZ020-UTZ003-231900-
SOUTHERN NEVADA-UTAH

CITY           SKY/WX    TMP DP  RH WIND       PRES   REMARKS
LAS VEGAS      MOSUNNY   81  57  43 SE5       30.06S
SALT LAKE CITY PTSUNNY   83  41  22 S9        30.08S
6HR MIN TEMP:  67; 6HR MAX TEMP:  84;

$$

NMZ009-TXZ055-231900-
NEW MEXICO-WEST TEXAS

CITY           SKY/WX    TMP DP  RH WIND       PRES   REMARKS
ALBUQUERQUE    MOSUNNY   75  50  41 SW8       30.24F
6HR MIN TEMP:  58; 6HR MAX TEMP:  75;

EL PASO        MOSUNNY   84  62  47 VRB5      30.13F
6HR MIN TEMP:  70; 6HR MAX TEMP:  85;

$$


........................KEY........................
SKY/WX - SKY CONDITION/WEATHER
TMP    - TEMPERATURE IN FAHRENHEIT
DP     - DEW POINT IN FAHRENHEIT
RH     - RELATIVE HUMIDITY IN PERCENT
WIND   - DIRECTION AND SPEED IN MILES PER HOUR (MPH)
VRB    - VARIABLE WIND DIRECTION
PRES   - MEAN SEA LEVEL PRESSURE IN INCHES OF MERCURY
         F - FALLING PRESSURE   R - RISING PRESSURE
         S - STEADY PRESSURE
VSB    - VISIBILITY IN MILES
HX     - HEAT INDEX IN FAHRENHEIT
WCI    - WIND CHILL INDEX IN FAHRENHEIT
TC     - TEMPERATURE IN CELSIUS WHICH IS ALSO KNOWN AS
         TEMPERATURE IN CENTIGRADE
AFB    - AIR FORCE BASE
         LUKE AFB IS LUKE AIR FORCE BASE
         DAVIS-MONTHAN IS DAVIS-MONTHAN AIR FORCE BASE
NAS    - NAVAL AIR STATION
         EL CENTRO NAS IS EL CENTRO NAVAL AIR STATION
N/A    - NOT AVAILABLE




USA.gov is the U.S. government's official web portal to all federal, state and local government web resources and services.